Meteoalarm - Portugal e Ilhas:

Avisos Meteorológicos para Portugal e Ilhas


Visite-nos no Facebook:

Visite-nos no Facebook


Madeira Webcams:


Grupo MeteoRAM Facebook:

Junte-se ao melhor e mais completo grupo de Meteorologia da Região Autónoma da Madeira



Situação meteorológica que não inspira cuidado.    Sem avisos

Weather Underground Histórico da Estação

Diário Resumo para Maio 27, 2018 Unidades:  Métrico    Inglês   Ambos
« Anterior Dia
Seguinte Dia »
Diário Semanal Mensal Anual Personalizado
  Atualmente: Alto: Baixo: Média:
Temperatura: 17.5 °C -17.8 °C 16.1 °C 17.9 °C
Ponto de orvalho: 12.4 °C -17.8 °C 10.6 °C 12.3 °C
Humidade: 72 % Humidity % 56 % 70 %
Velocidade do Vento: 14.8 km/h 0 km/h 1.1 km/h 8.9 km/h
Rajada de vento: 29.5 km/h 0 km/h - -
Vento:North - - WSW
Pressão Atmosférica: 1023.9 hPa 0 hPa 1019.9 hPa -
Precipitação: 0.51 mm      
Historical Graphs
 
 
Dados Tabulares para Maio 27, 2018
Hora Temperatura Ponto de orvalho Pressão Atmosférica Vento Velocidade do Vento Rajada de vento Humidade Taxa de Precipitação (Por hora)
-17.8 °C -17.8 °C 0 hPa Calm     Humidity % 0 mm
00:04 16.9 °C 11.2 °C 1020.9 hPa North 13.4 km/h 30.6 km/h 69 % 0 mm
00:09 16.9 °C 10.9 °C 1020.9 hPa WNW 7.2 km/h 23.3 km/h 68 % 0 mm
00:14 16.9 °C 11.2 °C 1020.9 hPa West 9.7 km/h 18.3 km/h 69 % 0 mm
00:19 16.9 °C 11.4 °C 1020.9 hPa North 2.6 km/h 19.5 km/h 70 % 0 mm
00:24 16.9 °C 11.4 °C 1020.5 hPa North 6.1 km/h 19.5 km/h 70 % 0 mm
00:29 16.8 °C 11.1 °C 1020.9 hPa NNW 6.1 km/h 12.2 km/h 69 % 0 mm
00:34 16.8 °C 11.1 °C 1020.5 hPa NNW 5 km/h 14.8 km/h 69 % 0 mm
00:39 16.7 °C 10.8 °C 1020.5 hPa NW 3.5 km/h 14.8 km/h 68 % 0 mm
00:44 16.7 °C 10.8 °C 1020.5 hPa NW 6.1 km/h 13.4 km/h 68 % 0 mm
00:49 16.7 °C 10.8 °C 1020.5 hPa NNW 5 km/h 13.4 km/h 68 % 0 mm
00:54 16.7 °C 10.6 °C 1020.5 hPa North 7.2 km/h 15.8 km/h 67 % 0 mm
00:59 16.8 °C 10.7 °C 1020.5 hPa NW 2.6 km/h 19.5 km/h 67 % 0 mm
01:04 16.8 °C 10.9 °C 1020.5 hPa NNW 7.2 km/h 19.5 km/h 68 % 0 mm
01:09 16.8 °C 11.1 °C 1020.5 hPa North 6.1 km/h 18.3 km/h 69 % 0 mm
01:14 16.8 °C 11.5 °C 1020.5 hPa NW 5 km/h 13.4 km/h 71 % 0 mm
01:19 16.8 °C 11.7 °C 1020.5 hPa North 7.2 km/h 18.3 km/h 72 % 0 mm
01:24 16.8 °C 11.9 °C 1020.2 hPa North 8.7 km/h 19.5 km/h 73 % 0 mm
01:29 16.8 °C 12.2 °C 1020.5 hPa NNE 6.1 km/h 28 km/h 74 % 0 mm
01:34 16.8 °C 12.3 °C 1020.5 hPa NNE 5 km/h 28 km/h 75 % 0 mm
01:39 16.7 °C 12.3 °C 1020.2 hPa North 1.1 km/h 18.3 km/h 75 % 0 mm
01:44 16.6 °C 12.6 °C 1020.5 hPa NNW 8.7 km/h 17.2 km/h 77 % 0 mm
01:49 16.6 °C 12.9 °C 1020.5 hPa NNW 8.7 km/h 27 km/h 79 % 0 mm
01:54 16.5 °C 12.8 °C 1020.5 hPa NNW 14.8 km/h 30.6 km/h 79 % 0 mm
01:59 16.4 °C 12.8 °C 1020.5 hPa North 7.2 km/h 30.6 km/h 79 % 0 mm
02:04 16.4 °C 12.6 °C 1020.2 hPa North 15.8 km/h 30.6 km/h 78 % 0 mm
02:09 16.4 °C 12.6 °C 1020.2 hPa North 7.2 km/h 30.6 km/h 78 % 0 mm
02:14 16.4 °C 12.8 °C 1020.2 hPa North 7.2 km/h 28 km/h 79 % 0 mm
02:19 16.4 °C 12.6 °C 1020.2 hPa North 14.8 km/h 24.5 km/h 78 % 0 mm
02:24 16.4 °C 12.6 °C 1020.2 hPa North 9.7 km/h 24.5 km/h 78 % 0 mm
02:29 16.5 °C 12.7 °C 1020.2 hPa North 13.4 km/h 27 km/h 78 % 0 mm
02:34 16.5 °C 12.3 °C 1020.2 hPa North 12.2 km/h 29.5 km/h 76 % 0 mm
02:39 16.5 °C 12.3 °C 1019.9 hPa North 5 km/h 29.5 km/h 76 % 0 mm
02:44 16.4 °C 11.9 °C 1020.2 hPa NNW 11.1 km/h 21.9 km/h 75 % 0 mm
02:49 16.4 °C 11.6 °C 1020.2 hPa NNW 12.2 km/h 21.9 km/h 73 % 0 mm
02:54 16.4 °C 11.3 °C 1020.2 hPa NNW 9.7 km/h 29.5 km/h 72 % 0 mm
02:59 16.5 °C 11.2 °C 1019.9 hPa North 13.4 km/h 29.5 km/h 71 % 0 mm
03:04 16.5 °C 11.2 °C 1020.2 hPa NNE 11.1 km/h 29.5 km/h 71 % 0 mm
03:09 16.5 °C 11.4 °C 1019.9 hPa North 11.1 km/h 27 km/h 72 % 0 mm
03:14 16.5 °C 11.4 °C 1020.2 hPa North 13.4 km/h 34.3 km/h 72 % 0 mm
03:19 16.5 °C 11.4 °C 1020.2 hPa North 7.2 km/h 34.3 km/h 72 % 0 mm
03:24 16.5 °C 11.2 °C 1020.2 hPa NNW 14.8 km/h 30.6 km/h 71 % 0 mm
03:29 16.5 °C 11.4 °C 1020.2 hPa North 6.1 km/h 23.3 km/h 72 % 0 mm
03:34 16.4 °C 11.1 °C 1020.2 hPa North 13.4 km/h 29.5 km/h 71 % 0 mm
03:39 16.4 °C 10.9 °C 1020.2 hPa North 8.7 km/h 29.5 km/h 70 % 0 mm
03:44 16.5 °C 11 °C 1019.9 hPa North 8.7 km/h 21.9 km/h 70 % 0 mm
03:49 16.5 °C 11 °C 1019.9 hPa NNW 6.1 km/h 27 km/h 70 % 0 mm
03:54 16.5 °C 11.2 °C 1020.2 hPa NNW 9.7 km/h 27 km/h 71 % 0 mm
03:59 16.4 °C 10.9 °C 1019.9 hPa NNW 12.2 km/h 24.5 km/h 70 % 0 mm
04:04 16.5 °C 11.2 °C 1019.9 hPa North 11.1 km/h 25.6 km/h 71 % 0 mm
04:09 16.5 °C 11.2 °C 1019.9 hPa North 11.1 km/h 27 km/h 71 % 0 mm
04:14 16.5 °C 11 °C 1020.2 hPa North 9.7 km/h 27 km/h 70 % 0 mm
04:19 16.5 °C 11 °C 1020.2 hPa NNW 7.2 km/h 21.9 km/h 70 % 0 mm
04:24 16.5 °C 11 °C 1019.9 hPa NNW 8.7 km/h 24.5 km/h 70 % 0 mm
04:29 16.5 °C 11 °C 1020.2 hPa North 9.7 km/h 24.5 km/h 70 % 0 mm
04:34 16.5 °C 11 °C 1020.2 hPa North 6.1 km/h 29.5 km/h 70 % 0 mm
04:39 16.5 °C 11.2 °C 1020.2 hPa NNW 3.5 km/h 29.5 km/h 71 % 0 mm
04:44 16.4 °C 11.1 °C 1019.9 hPa NNW 11.1 km/h 18.3 km/h 71 % 0 mm
04:46 16.4 °C 11.1 °C 1020.2 hPa NNW 3.5 km/h 18.3 km/h 71 % 0 mm
04:51 16.4 °C 11.1 °C 1019.9 hPa NNW 5 km/h 18.3 km/h 71 % 0 mm
04:56 16.3 °C 11.1 °C 1020.2 hPa North 1.1 km/h 12.2 km/h 71 % 0 mm
05:01 16.3 °C 11.3 °C 1019.9 hPa NNE 2.6 km/h 12.2 km/h 72 % 0 mm
05:06 16.2 °C 11.2 °C 1019.9 hPa NNW 5 km/h 9.7 km/h 72 % 0 mm
05:11 16.2 °C 11.2 °C 1020.2 hPa NNW 3.5 km/h 17.2 km/h 72 % 0 mm
05:16 16.1 °C 11.1 °C 1019.9 hPa North 3.5 km/h 17.2 km/h 72 % 0 mm
05:21 16.1 °C 11.1 °C 1019.9 hPa North 3.5 km/h 15.8 km/h 72 % 0 mm
05:26 16.1 °C 11.3 °C 1019.9 hPa North 8.7 km/h 17.2 km/h 73 % 0 mm
05:31 16.1 °C 11.1 °C 1019.9 hPa North 8.7 km/h 17.2 km/h 72 % 0 mm
05:36 16.1 °C 11.1 °C 1019.9 hPa North 1.1 km/h 17.2 km/h 72 % 0 mm
05:41 16.1 °C 11.1 °C 1019.9 hPa North 6.1 km/h 13.4 km/h 72 % 0 mm
05:46 16.1 °C 11.1 °C 1020.2 hPa NNW 5 km/h 14.8 km/h 72 % 0 mm
05:51 16.1 °C 11.1 °C 1020.2 hPa NNW 5 km/h 14.8 km/h 72 % 0 mm
05:56 16.1 °C 11.1 °C 1019.9 hPa NNW 1.1 km/h 14.8 km/h 72 % 0 mm
06:01 16.1 °C 10.8 °C 1019.9 hPa NW 6.1 km/h 13.4 km/h 71 % 0 mm
06:06 16.2 °C 10.9 °C 1020.2 hPa NNW 5 km/h 15.8 km/h 71 % 0 mm
06:11 16.2 °C 10.9 °C 1020.2 hPa NNW 6.1 km/h 15.8 km/h 71 % 0 mm
06:16 16.3 °C 11.1 °C 1020.2 hPa NNW 6.1 km/h 15.8 km/h 71 % 0 mm
06:21 16.3 °C 11.1 °C 1020.2 hPa NNW 6.1 km/h 15.8 km/h 71 % 0 mm
06:26 16.4 °C 11.1 °C 1020.2 hPa North 3.5 km/h 23.3 km/h 71 % 0 mm
06:31 16.5 °C 11 °C 1020.2 hPa NNW 6.1 km/h 23.3 km/h 70 % 0 mm
06:36 16.5 °C 11.2 °C 1020.2 hPa North 5 km/h 14.8 km/h 71 % 0 mm
06:41 16.5 °C 11.2 °C 1020.2 hPa NNE 8.7 km/h 15.8 km/h 71 % 0 mm
06:46 16.6 °C 11.3 °C 1020.2 hPa North 1.1 km/h 17.2 km/h 71 % 0 mm
06:47 16.6 °C 11.3 °C 1020.2 hPa NNW 5 km/h 17.2 km/h 71 % 0 mm
06:52 16.7 °C 11.2 °C 1020.2 hPa NW 6.1 km/h 14.8 km/h 70 % 0 mm
06:57 16.7 °C 11 °C 1020.2 hPa NW 8.7 km/h 17.2 km/h 69 % 0 mm
07:02 16.8 °C 11.1 °C 1020.5 hPa North 12.2 km/h 20.9 km/h 69 % 0 mm
07:07 16.9 °C 11.4 °C 1020.5 hPa North 11.1 km/h 24.5 km/h 70 % 0 mm
07:12 16.9 °C 11.4 °C 1020.5 hPa NNW 6.1 km/h 24.5 km/h 70 % 0 mm
07:17 16.9 °C 11.4 °C 1020.5 hPa NW 7.2 km/h 24.5 km/h 70 % 0 mm
07:22 16.9 °C 11.4 °C 1020.5 hPa NNW 3.5 km/h 18.3 km/h 70 % 0 mm
07:27 16.9 °C 11.4 °C 1020.5 hPa NNW 5 km/h 18.3 km/h 70 % 0 mm
07:32 17 °C 11.5 °C 1020.9 hPa NNW 5 km/h 15.8 km/h 70 % 0 mm
07:37 17 °C 11.9 °C 1020.9 hPa North 7.2 km/h 17.2 km/h 72 % 0 mm
07:42 17 °C 11.9 °C 1020.9 hPa North 3.5 km/h 17.2 km/h 72 % 0 mm
07:47 17 °C 12.1 °C 1020.9 hPa North 2.6 km/h 15.8 km/h 73 % 0 mm
07:52 17 °C 12.1 °C 1020.9 hPa NNW 8.7 km/h 19.5 km/h 73 % 0 mm
07:57 17 °C 12.1 °C 1020.9 hPa NW 7.2 km/h 19.5 km/h 73 % 0 mm
08:02 17 °C 12.3 °C 1020.9 hPa NW 6.1 km/h 19.5 km/h 74 % 0 mm
08:07 17.1 °C 12.7 °C 1020.9 hPa NNW 8.7 km/h 18.3 km/h 75 % 0 mm
08:12 17.1 °C 12.4 °C 1020.9 hPa NNW 6.1 km/h 20.9 km/h 74 % 0 mm
08:17 17.2 °C 12.7 °C 1020.9 hPa NNW 6.1 km/h 20.9 km/h 75 % 0 mm
08:22 17.2 °C 12.7 °C 1020.9 hPa NNW 8.7 km/h 17.2 km/h 75 % 0 mm
08:27 17.2 °C 12.7 °C 1021.2 hPa NNW 7.2 km/h 17.2 km/h 75 % 0 mm
08:32 17.3 °C 12.6 °C 1020.9 hPa North 18.3 km/h 27 km/h 74 % 0 mm
08:37 17.3 °C 12.8 °C 1021.2 hPa NNE 8.7 km/h 27 km/h 75 % 0 mm
08:42 17.4 °C 12.9 °C 1021.2 hPa North 5 km/h 27 km/h 75 % 0 mm
08:47 17.4 °C 12.7 °C 1021.2 hPa NW 6.1 km/h 20.9 km/h 74 % 0 mm
08:52 17.4 °C 12.7 °C 1021.6 hPa NW 8.7 km/h 17.2 km/h 74 % 0 mm
08:57 17.5 °C 12.8 °C 1021.6 hPa NW 7.2 km/h 19.5 km/h 74 % 0 mm
09:02 17.5 °C 13.1 °C 1021.6 hPa NW 5 km/h 19.5 km/h 75 % 0 mm
09:07 17.5 °C 12.8 °C 1021.9 hPa WNW 6.1 km/h 18.3 km/h 74 % 0 mm
09:12 17.6 °C 12.9 °C 1021.9 hPa NW 7.2 km/h 18.3 km/h 74 % 0 mm
09:17 17.7 °C 13.4 °C 1021.9 hPa North 6.1 km/h 30.6 km/h 76 % 0 mm
09:22 17.8 °C 13.3 °C 1021.9 hPa North 6.1 km/h 30.6 km/h 75 % 0 mm
09:27 17.8 °C 13.1 °C 1021.9 hPa NNW 18.3 km/h 29.5 km/h 74 % 0 mm
09:32 17.8 °C 13.1 °C 1021.9 hPa NNW 7.2 km/h 29.5 km/h 74 % 0 mm
09:37 17.9 °C 13.4 °C 1022.2 hPa NNW 6.1 km/h 29.5 km/h 75 % 0 mm
09:42 17.9 °C 13.4 °C 1022.2 hPa NNW 12.2 km/h 21.9 km/h 75 % 0 mm
09:47 17.9 °C 13 °C 1022.2 hPa NNW 7.2 km/h 25.6 km/h 73 % 0 mm
09:52 18 °C 13.1 °C 1022.2 hPa NNW 5 km/h 25.6 km/h 73 % 0 mm
09:57 18.1 °C 13.4 °C 1022.2 hPa NE 8.7 km/h 19.5 km/h 74 % 0 mm
10:02 18.3 °C 12.9 °C 1022.2 hPa ENE 3.5 km/h 20.9 km/h 71 % 0 mm
10:07 18.5 °C 13.4 °C 1022.2 hPa NNW 8.7 km/h 20.9 km/h 72 % 0 mm
10:08 18.6 °C 13.4 °C 1022.2 hPa NNW 8.7 km/h 20.9 km/h 72 % 0 mm
10:13 18.6 °C 13.2 °C 1022.2 hPa North 8.7 km/h 18.3 km/h 71 % 0 mm
10:18 18.6 °C 13.4 °C 1022.2 hPa North 8.7 km/h 23.3 km/h 72 % 0 mm
10:23 18.5 °C 13.4 °C 1022.2 hPa North 7.2 km/h 23.3 km/h 72 % 0 mm
10:28 18.5 °C 13.2 °C 1022.2 hPa North 13.4 km/h 23.3 km/h 71 % 0 mm
10:33 18.6 °C 13.2 °C 1022.6 hPa North 9.7 km/h 28 km/h 71 % 0 mm
10:38 18.7 °C 13.3 °C 1022.2 hPa North 6.1 km/h 28 km/h 71 % 0 mm
10:43 18.8 °C 13.2 °C 1022.2 hPa NNE 9.7 km/h 21.9 km/h 70 % 0 mm
10:48 18.7 °C 13.1 °C 1022.6 hPa NNW 7.2 km/h 24.5 km/h 70 % 0 mm
10:53 18.6 °C 13.2 °C 1022.6 hPa NNW 12.2 km/h 24.5 km/h 71 % 0 mm
10:58 18.8 °C 13.2 °C 1022.6 hPa NNW 5 km/h 23.3 km/h 70 % 0 mm
11:03 18.9 °C 13.1 °C 1022.6 hPa North 9.7 km/h 21.9 km/h 69 % 0 mm
11:08 18.9 °C 12.4 °C 1022.6 hPa North 7.2 km/h 18.3 km/h 66 % 0 mm
11:13 19.2 °C 13.4 °C 1022.6 hPa North 8.7 km/h 19.5 km/h 69 % 0 mm
11:18 19.1 °C 13.1 °C 1022.9 hPa North 8.7 km/h 19.5 km/h 68 % 0 mm
11:23 18.9 °C 13.1 °C 1022.6 hPa North 1.1 km/h 30.6 km/h 69 % 0 mm
11:28 19 °C 13.4 °C 1022.9 hPa NW 2.6 km/h 30.6 km/h 70 % 0 mm
11:33 19.1 °C 13.5 °C 1022.6 hPa NNW 8.7 km/h 19.5 km/h 70 % 0 mm
11:38 19.1 °C 12.6 °C 1022.9 hPa NNW 7.2 km/h 24.5 km/h 66 % 0 mm
11:43 19.1 °C 12.6 °C 1022.9 hPa NW 5 km/h 24.5 km/h 66 % 0 mm
11:48 19.3 °C 12.6 °C 1022.9 hPa NNW 6.1 km/h 23.3 km/h 65 % 0 mm
11:53 19.3 °C 13.1 °C 1022.9 hPa NNW 6.1 km/h 24.5 km/h 67 % 0 mm
11:58 19.3 °C 12.8 °C 1022.9 hPa NNW 8.7 km/h 24.5 km/h 66 % 0 mm
12:03 19.5 °C 13 °C 1022.9 hPa North 9.7 km/h 18.3 km/h 66 % 0 mm
12:08 19.6 °C 12.6 °C 1022.9 hPa North 6.1 km/h 27 km/h 64 % 0 mm
12:13 19.7 °C 12.7 °C 1022.9 hPa North 7.2 km/h 27 km/h 64 % 0 mm
12:18 19.9 °C 12.9 °C 1022.9 hPa NNE 5 km/h 13.4 km/h 64 % 0 mm
12:23 19.9 °C 12.9 °C 1022.9 hPa NNE 5 km/h 12.2 km/h 64 % 0 mm
12:28 20 °C 13 °C 1022.9 hPa NNE 14.8 km/h 23.3 km/h 64 % 0 mm
12:33 20.2 °C 12.9 °C 1022.9 hPa NNE 11.1 km/h 23.3 km/h 63 % 0 mm
12:38 20.4 °C 13.1 °C 1022.9 hPa NNE 6.1 km/h 19.5 km/h 63 % 0 mm
12:43 20.3 °C 11.8 °C 1022.6 hPa NNE 5 km/h 21.9 km/h 58 % 0 mm
12:48 20.2 °C 11.9 °C 1022.9 hPa North 8.7 km/h 21.9 km/h 59 % 0 mm
12:53 20.2 °C 12.2 °C 1022.9 hPa NW 2.6 km/h 21.9 km/h 60 % 0 mm
12:58 20.4 °C 12.4 °C 1022.9 hPa NW 3.5 km/h 19.5 km/h 60 % 0 mm
13:03 20.4 °C 12.1 °C 1022.9 hPa NNE 11.1 km/h 19.5 km/h 59 % 0 mm
13:08 46.3 °C 35.8 °C 1022.9 hPa North 90.8 km/h 90.8 km/h 57 % 0 mm
13:13 20.4 °C 11.6 °C 1022.9 hPa North 12.2 km/h 33.2 km/h 57 % 0 mm
13:18 20.1 °C 11.3 °C 1022.6 hPa North 7.2 km/h 33.2 km/h 57 % 0 mm
13:23 20.2 °C 11.4 °C 1022.6 hPa North 11.1 km/h 24.5 km/h 57 % 0 mm
13:28 20.4 °C 11.3 °C 1022.9 hPa North 9.7 km/h 31.7 km/h 56 % 0 mm
13:33 20.4 °C 11.3 °C 1022.6 hPa North 12.2 km/h 31.7 km/h 56 % 0 mm
13:38 20.4 °C 11.3 °C 1022.6 hPa North 9.7 km/h 24.5 km/h 56 % 0 mm
13:43 20.6 °C 11.5 °C 1022.9 hPa NNW 8.7 km/h 24.5 km/h 56 % 0 mm
13:48 20.5 °C 11.4 °C 1022.6 hPa North 6.1 km/h 20.9 km/h 56 % 0 mm
13:53 20.5 °C 11.4 °C 1022.6 hPa North 3.5 km/h 28 km/h 56 % 0 mm
13:58 20.6 °C 11.5 °C 1022.6 hPa North 14.8 km/h 28 km/h 56 % 0 mm
14:03 20.6 °C 11.5 °C 1022.6 hPa NNE 11.1 km/h 28 km/h 56 % 0 mm
14:08 20.6 °C 11.5 °C 1022.6 hPa NNE 7.2 km/h 30.6 km/h 56 % 0 mm
14:13 20.5 °C 11.4 °C 1022.6 hPa North 7.2 km/h 31.7 km/h 56 % 0 mm
14:18 20.4 °C 11.3 °C 1022.6 hPa NNE 11.1 km/h 31.7 km/h 56 % 0 mm
14:23 20.3 °C 11.2 °C 1022.6 hPa NE 11.1 km/h 25.6 km/h 56 % 0 mm
14:28 20.2 °C 11.4 °C 1022.9 hPa NNE 11.1 km/h 23.3 km/h 57 % 0 mm
14:33 20 °C 12 °C 1022.9 hPa NNE 8.7 km/h 23.3 km/h 60 % 0 mm
14:38 20.3 °C 12.3 °C 1022.9 hPa North 6.1 km/h 20.9 km/h 60 % 0 mm
14:43 20.6 °C 11.8 °C 1022.9 hPa NW 6.1 km/h 17.2 km/h 57 % 0 mm
14:48 20.4 °C 11.9 °C 1022.9 hPa North 13.4 km/h 33.2 km/h 58 % 0 mm
14:53 20.1 °C 12.6 °C 1022.9 hPa NNE 9.7 km/h 33.2 km/h 62 % 0 mm
14:58 20 °C 12.8 °C 1022.9 hPa NNE 9.7 km/h 27 km/h 63 % 0 mm
15:03 19.7 °C 12.7 °C 1022.9 hPa North 8.7 km/h 27 km/h 64 % 0 mm
15:08 19.6 °C 13.1 °C 1022.9 hPa North 7.2 km/h 27 km/h 66 % 0 mm
15:13 19.4 °C 13.3 °C 1022.9 hPa NNE 8.7 km/h 21.9 km/h 68 % 0 mm
15:18 19.5 °C 13.7 °C 1022.9 hPa NNE 5 km/h 21.9 km/h 69 % 0 mm
15:23 19.5 °C 13.2 °C 1022.9 hPa North 13.4 km/h 20.9 km/h 67 % 0 mm
15:28 19.4 °C 13.1 °C 1022.9 hPa NNW 11.1 km/h 19.5 km/h 67 % 0 mm
15:33 19.4 °C 13.1 °C 1023.2 hPa NNW 12.2 km/h 23.3 km/h 67 % 0 mm
15:38 19.4 °C 12.9 °C 1022.9 hPa NNW 13.4 km/h 25.6 km/h 66 % 0 mm
15:43 19.4 °C 12.9 °C 1022.9 hPa North 8.7 km/h 25.6 km/h 66 % 0 mm
15:48 19.4 °C 12.9 °C 1022.9 hPa North 9.7 km/h 25.6 km/h 66 % 0 mm
15:54 19.4 °C 13.1 °C 1022.9 hPa North 9.7 km/h 17.2 km/h 67 % 0 mm
15:59 19.4 °C 13.1 °C 1022.9 hPa NNW 5 km/h 17.2 km/h 67 % 0 mm
16:04 19.4 °C 12.9 °C 1022.9 hPa NNW 9.7 km/h 25.6 km/h 66 % 0 mm
16:09 19.3 °C 12.8 °C 1023.2 hPa North 13.4 km/h 25.6 km/h 66 % 0 mm
16:14 19.2 °C 12.9 °C 1022.9 hPa North 8.7 km/h 23.3 km/h 67 % 0 mm
16:19 19.1 °C 12.8 °C 1022.9 hPa North 7.2 km/h 18.3 km/h 67 % 0 mm
16:24 19 °C 12.5 °C 1023.2 hPa North 11.1 km/h 19.5 km/h 66 % 0 mm
16:29 18.9 °C 12.9 °C 1023.2 hPa North 12.2 km/h 20.9 km/h 68 % 0 mm
16:34 18.8 °C 13.4 °C 1022.9 hPa NNE 17.2 km/h 30.6 km/h 71 % 0 mm
16:39 18.8 °C 13.4 °C 1023.2 hPa North 15.8 km/h 30.6 km/h 71 % 0 mm
16:44 18.8 °C 13.4 °C 1022.9 hPa North 15.8 km/h 30.6 km/h 71 % 0 mm
16:49 18.5 °C 13.6 °C 1023.2 hPa North 6.1 km/h 27 km/h 73 % 0 mm
16:54 18.4 °C 13.1 °C 1023.2 hPa North 8.7 km/h 27 km/h 71 % 0 mm
16:59 18.5 °C 13.2 °C 1023.2 hPa North 7.2 km/h 17.2 km/h 71 % 0 mm
17:04 18.6 °C 13.4 °C 1023.2 hPa North 9.7 km/h 23.3 km/h 72 % 0 mm
17:09 18.6 °C 13.4 °C 1023.2 hPa North 7.2 km/h 23.3 km/h 72 % 0 mm
17:14 18.6 °C 13.4 °C 1023.2 hPa North 5 km/h 19.5 km/h 72 % 0 mm
17:19 18.6 °C 13.2 °C 1023.2 hPa North 11.1 km/h 28 km/h 71 % 0 mm
17:24 18.6 °C 13.1 °C 1023.2 hPa North 12.2 km/h 28 km/h 70 % 0 mm
17:29 18.7 °C 12.9 °C 1023.2 hPa North 7.2 km/h 19.5 km/h 69 % 0 mm
17:34 18.8 °C 13.2 °C 1022.9 hPa North 14.8 km/h 24.5 km/h 70 % 0 mm
17:39 18.8 °C 12.8 °C 1023.2 hPa NNE 12.2 km/h 27 km/h 68 % 0 mm
17:44 18.9 °C 13.3 °C 1023.2 hPa NNE 6.1 km/h 27 km/h 70 % 0 mm
17:49 19 °C 13.4 °C 1023.2 hPa North 3.5 km/h 21.9 km/h 70 % 0 mm
17:54 19 °C 13.2 °C 1023.2 hPa North 11.1 km/h 20.9 km/h 69 % 0 mm
17:59 18.9 °C 12.9 °C 1023.2 hPa NNW 12.2 km/h 20.9 km/h 68 % 0 mm
18:04 18.9 °C 13.1 °C 1022.9 hPa North 14.8 km/h 24.5 km/h 69 % 0 mm
18:08 18.9 °C 13.1 °C 1023.2 hPa North 7.2 km/h 24.5 km/h 69 % 0 mm
18:13 18.9 °C 13.3 °C 1022.9 hPa NNW 13.4 km/h 24.5 km/h 70 % 0 mm
18:18 18.8 °C 13 °C 1022.9 hPa NNW 11.1 km/h 24.5 km/h 69 % 0 mm
18:23 18.7 °C 12.9 °C 1022.9 hPa NNW 5 km/h 24.5 km/h 69 % 0 mm
18:28 18.8 °C 13 °C 1022.9 hPa NNW 2.6 km/h 19.5 km/h 69 % 0 mm
18:33 19 °C 12.9 °C 1022.9 hPa NNW 6.1 km/h 19.5 km/h 68 % 0 mm
18:38 18.8 °C 13 °C 1022.9 hPa NNE 6.1 km/h 23.3 km/h 69 % 0 mm
18:43 18.7 °C 13.3 °C 1022.9 hPa North 9.7 km/h 23.3 km/h 71 % 0 mm
18:48 18.5 °C 13.2 °C 1022.9 hPa North 11.1 km/h 21.9 km/h 71 % 0 mm
18:53 18.4 °C 13.1 °C 1022.9 hPa North 14.8 km/h 24.5 km/h 71 % 0 mm
18:58 18.4 °C 13.1 °C 1022.9 hPa NNW 9.7 km/h 24.5 km/h 71 % 0 mm
19:03 18.4 °C 13.5 °C 1022.9 hPa NNW 12.2 km/h 28 km/h 73 % 0 mm
19:08 18.3 °C 13.2 °C 1022.9 hPa NNW 12.2 km/h 28 km/h 72 % 0 mm
19:13 18.3 °C 13.4 °C 1022.9 hPa NNW 6.1 km/h 25.6 km/h 73 % 0 mm
19:18 18.3 °C 13.8 °C 1022.9 hPa NNW 9.7 km/h 24.5 km/h 75 % 0 mm
19:23 18.3 °C 13.8 °C 1023.2 hPa North 9.7 km/h 19.5 km/h 75 % 0 mm
19:28 18.2 °C 13.5 °C 1023.2 hPa North 14.8 km/h 24.5 km/h 74 % 0 mm
19:33 18.1 °C 13.4 °C 1023.2 hPa NNW 7.2 km/h 24.5 km/h 74 % 0 mm
19:38 18.2 °C 13.7 °C 1023.2 hPa North 11.1 km/h 24.5 km/h 75 % 0 mm
19:43 18.1 °C 13.6 °C 1023.2 hPa North 15.8 km/h 27 km/h 75 % 0 mm
19:48 18.1 °C 13.4 °C 1023.2 hPa NNW 11.1 km/h 27 km/h 74 % 0 mm
19:53 18.1 °C 13.4 °C 1023.2 hPa North 12.2 km/h 29.5 km/h 74 % 0 mm
19:58 18 °C 13.3 °C 1023.2 hPa North 11.1 km/h 29.5 km/h 74 % 0 mm
20:03 18.1 °C 13.4 °C 1023.2 hPa NNW 9.7 km/h 21.9 km/h 74 % 0 mm
20:08 18 °C 13.3 °C 1023.2 hPa NNW 9.7 km/h 21.9 km/h 74 % 0 mm
20:13 18 °C 13.1 °C 1023.2 hPa North 7.2 km/h 21.9 km/h 73 % 0 mm
20:18 17.9 °C 12.8 °C 1023.2 hPa North 8.7 km/h 25.6 km/h 72 % 0 mm
20:23 18 °C 13.1 °C 1023.2 hPa North 9.7 km/h 25.6 km/h 73 % 0 mm
20:28 17.9 °C 13.4 °C 1023.2 hPa North 8.7 km/h 24.5 km/h 75 % 0 mm
20:33 17.8 °C 12.9 °C 1023.2 hPa North 8.7 km/h 24.5 km/h 73 % 0 mm
20:38 17.7 °C 12.6 °C 1023.2 hPa NNW 6.1 km/h 21.9 km/h 72 % 0 mm
20:43 17.7 °C 12.2 °C 1023.2 hPa NNW 8.7 km/h 21.9 km/h 70 % 0 mm
20:48 17.7 °C 11.9 °C 1023.6 hPa North 7.2 km/h 20.9 km/h 69 % 0 mm
20:53 17.8 °C 12.7 °C 1023.2 hPa North 17.2 km/h 31.7 km/h 72 % 0 mm
20:58 17.8 °C 12.9 °C 1023.6 hPa NNW 7.2 km/h 31.7 km/h 73 % 0 mm
21:03 17.7 °C 12.6 °C 1023.2 hPa NW 9.7 km/h 31.7 km/h 72 % 0 mm
21:08 17.7 °C 12.6 °C 1023.2 hPa NNW 13.4 km/h 36.7 km/h 72 % 0 mm
21:13 17.7 °C 12.6 °C 1023.2 hPa NNW 11.1 km/h 36.7 km/h 72 % 0 mm
21:18 17.7 °C 12.6 °C 1023.2 hPa NNW 14.8 km/h 33.2 km/h 72 % 0 mm
21:23 17.7 °C 12.8 °C 1023.2 hPa NW 13.4 km/h 33.2 km/h 73 % 0 mm
21:28 17.7 °C 12.8 °C 1023.2 hPa North 14.8 km/h 33.2 km/h 73 % 0 mm
21:33 17.7 °C 13 °C 1023.2 hPa North 14.8 km/h 33.2 km/h 74 % 0 mm
21:38 17.7 °C 13.2 °C 1023.6 hPa NNW 8.7 km/h 27 km/h 75 % 0 mm
21:43 17.7 °C 13.4 °C 1023.6 hPa North 8.7 km/h 27 km/h 76 % 0 mm
21:48 17.6 °C 13.3 °C 1023.6 hPa NNW 7.2 km/h 27 km/h 76 % 0 mm
21:53 17.4 °C 12.7 °C 1023.6 hPa NW 6.1 km/h 27 km/h 74 % 0 mm
21:58 17.3 °C 11.6 °C 1023.9 hPa NNW 12.2 km/h 29.5 km/h 69 % 0 mm
22:03 17.4 °C 11 °C 1023.9 hPa NNW 14.8 km/h 29.5 km/h 66 % 0 mm
22:08 17.5 °C 11.8 °C 1023.6 hPa NW 9.7 km/h 29.5 km/h 69 % 0 mm
22:13 17.5 °C 12 °C 1023.6 hPa NW 11.1 km/h 28 km/h 70 % 0 mm
22:18 17.5 °C 12.2 °C 1023.6 hPa NW 11.1 km/h 23.3 km/h 71 % 0 mm
22:23 17.5 °C 12.4 °C 1023.9 hPa NNW 5 km/h 21.9 km/h 72 % 0 mm
22:28 17.5 °C 12.4 °C 1023.9 hPa North 14.8 km/h 29.5 km/h 72 % 0 mm
MeteoMachico
Cumprimentos de Weather Underground - 2.75 mb

Script original por  Jim McMurry - jmcmurry@mwt.net Adaptado para o modelo por  Wim van der Kuil - Leuven-Template.eu

Equipamento que usamos:

Estação Meteorológica
Weatherwise ws-1080

IPCAM
Dericam H502W

Servidor
Digital Ocean

Weatherwise ws-1080

Dericam H502W

Digital Ocean